, CA

(GMT )
Point Mugu

Weather History for KNTD - December, 2012

Change the Weather History Date:

Friday, December 7, 2012

  Actual Average Record
Temperature  
Mean Temperature 53 °F -  
Max Temperature 62 °F 62 °F 77 °F (2001)
Min Temperature 44 °F 44 °F 37 °F (1999)
Degree Days  
Heating Degree Days 12    
Growing Degree Days 3 (Base 50)    
Moisture  
Dew Point 52 °F    
Average Humidity 98    
Maximum Humidity 100    
Minimum Humidity 83    
Precipitation  
Precipitation 0.00 in - - ()
Sea Level Pressure  
Sea Level Pressure 29.95 in    
Wind  
Wind Speed 4 mph (ESE)    
Max Wind Speed 14 mph    
Max Gust Speed 21 mph    
Visibility 4 miles    
Events Fog    
Averages and records for this station are not official NWS values.
T = Trace of Precipitation, MM = Missing Value Source: NWS Daily Summary

Daily Weather History Graph

Daily Weather History Graph

Search for Another Location

Airport or City:

Trip Planner

Search our weather history database for the weather conditions in past years. The results will help you decide how hot, cold, wet, or windy it might be!

Date:

Astronomy

Dec. 07, 2012 Rise Set
Actual Time 6:49 AM PST 4:46 PM PST
Civil Twilight 6:21 AM PST 5:14 PM PST
Nautical Twilight 5:50 AM PST 5:45 PM PST
Astronomical Twilight 5:20 AM PST 6:16 PM PST
Moon 12:28 AM PST (12/7) 12:33 PM PST (12/7)
Length of Visible Light 10h 52m
Length of Day
9h 57m
Last Quarter, 37% of the Moon is Illuminated
Dec 7
Last Quarter
Dec 13
New
Dec 19
First Quarter
Dec 28
Full
Jan 4
Last Quarter

Hourly Weather History & Observations

Time (PST) Temp. Windchill Dew Point Humidity Pressure Visibility Wind Dir Wind Speed Gust Speed Precip Events Conditions
12:54 AM 50.0 °F - 50.0 °F 100% 29.93 in - NE 3.5 mph - N/A   Clear
1:06 AM 48.2 °F - 48.2 °F 100% 29.93 in - East 3.5 mph - N/A   Partly Cloudy
1:54 AM 48.9 °F - 48.9 °F 100% 29.93 in - ENE 4.6 mph - N/A   Clear
2:54 AM 46.9 °F - 46.9 °F 100% 29.93 in - Calm Calm - N/A   Clear
3:54 AM 46.9 °F - 46.9 °F 100% 29.92 in - Calm Calm - N/A   Clear
4:02 AM 44.6 °F 43.1 °F 44.6 °F 100% 29.92 in - NE 3.5 mph - N/A   Scattered Clouds
4:10 AM 46.4 °F - 46.4 °F 100% 29.91 in - Calm Calm - N/A   Mostly Cloudy
4:54 AM 48.0 °F - 48.0 °F 100% 29.93 in - Calm Calm - N/A   Overcast
5:54 AM 48.9 °F - 48.9 °F 100% 29.94 in 0.2 mi East 4.6 mph - N/A Fog Fog
6:54 AM 50.0 °F - 50.0 °F 100% 29.96 in 0.2 mi Calm Calm - N/A Fog Fog
7:54 AM 46.9 °F - 46.9 °F 100% 29.96 in 0.2 mi East 4.6 mph - N/A Fog Fog
7:57 AM 46.4 °F 44.3 °F 46.4 °F 100% 29.96 in 0.8 mi Variable 4.6 mph - N/A   Overcast
8:13 AM 48.2 °F - 48.2 °F 100% 29.97 in 0.8 mi Calm Calm - N/A   Mostly Cloudy
8:19 AM 48.2 °F - 48.2 °F 100% 29.97 in 7.0 mi Calm Calm - N/A   Scattered Clouds
8:54 AM 54.0 °F - 54.0 °F 100% 29.98 in 7.0 mi Calm Calm - N/A   Scattered Clouds
9:09 AM 53.6 °F - 53.6 °F 100% 29.98 in 0.5 mi Calm Calm - N/A Fog Fog
9:38 AM 53.6 °F - 53.6 °F 100% 29.98 in 0.2 mi SSE 6.9 mph - N/A Fog Fog
9:54 AM 55.0 °F - 55.0 °F 100% 29.99 in 0.2 mi South 8.1 mph - N/A Fog Fog
10:24 AM 57.2 °F - 57.2 °F 100% 29.98 in 3.0 mi South 8.1 mph - N/A   Mostly Cloudy
10:31 AM 57.2 °F - 57.2 °F 100% 29.98 in 3.0 mi South 10.4 mph - N/A   Scattered Clouds
10:54 AM 59.0 °F - 57.9 °F 96% 29.98 in 3.0 mi South 11.5 mph - N/A   Scattered Clouds
11:54 AM 61.0 °F - 57.9 °F 90% 29.96 in 3.0 mi South 13.8 mph 20.7 mph N/A   Partly Cloudy
12:54 PM 62.1 °F - 59.0 °F 90% 29.95 in 3.0 mi South 11.5 mph 20.7 mph N/A   Partly Cloudy
1:54 PM 61.0 °F - 59.0 °F 93% 29.93 in 3.0 mi South 8.1 mph - N/A   Partly Cloudy
2:54 PM 61.0 °F - 59.0 °F 93% 29.93 in 3.0 mi South 5.8 mph - N/A   Partly Cloudy
3:54 PM 60.1 °F - 59.0 °F 96% 29.93 in 7.0 mi SSW 3.5 mph - N/A   Scattered Clouds
4:54 PM 57.9 °F - 57.9 °F 100% 29.93 in 7.0 mi Calm Calm - N/A   Scattered Clouds
5:54 PM 57.0 °F - 57.0 °F 100% 29.93 in 7.0 mi Calm Calm - N/A   Scattered Clouds
6:54 PM 55.0 °F - 55.0 °F 100% 29.94 in 7.0 mi North 3.5 mph - N/A   Partly Cloudy
7:54 PM 55.0 °F - 55.0 °F 100% 29.94 in 7.0 mi North 4.6 mph - N/A   Clear
8:54 PM 54.0 °F - 54.0 °F 100% 29.95 in 7.0 mi North 4.6 mph - N/A   Clear
9:54 PM 53.1 °F - 53.1 °F 100% 29.94 in 7.0 mi NNE 6.9 mph - N/A   Clear
10:54 PM 53.1 °F - 53.1 °F 100% 29.93 in 7.0 mi North 6.9 mph - N/A   Clear
11:54 PM 53.1 °F - 48.0 °F 83% 29.93 in - North 4.6 mph - N/A   Clear